This demonstration page uses our WeatherBlox Daily Observations layout. Learn more.

41.55636, -103.73856

Hourly Observations for June 2, 2017

Temp ( °F °C ) Dew Point ( °F °C ) Humidity (%) Winds ( mph kmh ) Pressure ( in mb ) Visibility ( mi km ) Precip ( " mm )
12:53 am 00:53 Clear 61 16.1 54 12.2 78 78 E 9 15 29.78 1008 10 16.0934 0 0
1:53 am 01:53 Clear 62 16.7 52 11.1 70 70 E 10 17 29.75 1008 10 16.0934 0 0
2:53 am 02:53 Clear 60 15.6 50 10 70 70 ENE 5 7 29.75 1008 10 16.0934 0 0
3:53 am 03:53 Clear 56 13.3 49 9.4 77 77 E 7 11 29.76 1008 10 16.0934 0 0
4:53 am 04:53 Clear 54 12.2 48 8.9 80 80 Calm 29.78 1009 10 16.0934 0 0
5:53 am 05:53 Sunny 55 12.8 47 8.3 74 74 VRB 3 6 29.8 1009 10 16.0934 0 0
6:53 am 06:53 Sunny 62 16.7 52 11.1 70 70 Calm 29.82 1010 10 16.0934 0 0
7:53 am 07:53 Sunny 67 19.4 51 10.6 57 57 WNW 8 13 29.82 1010 10 16.0934 0 0
8:53 am 08:53 Sunny 71 21.7 51 10.6 49 49 WNW 13 20 29.82 1010 10 16.0934 0 0
9:53 am 09:53 Sunny 75 23.9 51 10.6 43 43 WNW 10 17 29.82 1010 10 16.0934 0 0
10:53 am 10:53 Mostly Sunny 79 26.1 51 10.6 38 38 WNW 10 17 29.81 1010 10 16.0934 0 0
11:53 am 11:53 Sunny 81 27.2 51 10.6 35 35 W 10 17 29.82 1010 10 16.0934 0 0
12:53 pm 12:53 Mostly Cloudy 80 26.7 49 9.4 34 34 W 7 11 29.83 1010 10 16.0934 0 0
1:53 pm 13:53 Partly Cloudy 82 27.8 52 11.1 35 35 NW 20 31 29.82 1010 10 16.0934 0 0
2:53 pm 14:53 Partly Cloudy 83 28.3 50 10 32 32 NW 14 22 29.8 1009 10 16.0934 0 0
3:53 pm 15:53 Mostly Cloudy 82 27.8 49 9.4 32 32 NW 15 24 29.82 1010 10 16.0934 0 0
4:53 pm 16:53 Cloudy 77 25 48 8.9 36 36 WNW 12 19 29.85 1011 10 16.0934 0 0
6:53 pm 18:53 Mostly Sunny 71 21.7 54 12.2 55 55 ESE 12 19 29.86 1011 10 16.0934 0 0
7:53 pm 19:53 Sunny 68 20 54 12.2 61 61 ESE 12 19 29.88 1012 10 16.0934 0 0
8:53 pm 20:53 Clear 65 18.3 54 12.2 68 68 NE 6 9 29.91 1013 10 16.0934 0 0
9:53 pm 21:53 Clear 61 16.1 53 11.7 75 75 undefined N/A 29.95 1014 10 16.0934 0 0
10:53 pm 22:53 Clear 59 15 53 11.7 81 81 Calm 29.95 1014 10 16.0934 0 0
11:53 pm 23:53 Clear 58 14.4 52 11.1 81 81 Calm 29.95 1014 10 16.0934 0 0

Powered by AerisWeather